Location: Isles
(48.9125°N, 2.8272°E)
Time: 09:05:13
(UTC+00:00)

IKONOS-2 - Pass Details

Date: 03 February 2023
Orbit: 594 x 605 km, 98.2° (Epoch: 28 March)

Event Time Altitude Azimuth Distance (km) Brightness Sun altitude
Rises 17:33:59 0° 15° (NNE) 2,882 7.7 -7.8°
Reaches altitude 10° 17:36:11 10° 18° (NNE) 1,972 6.8 -8.1°
Maximum altitude 17:40:27 73° 103° (ESE) 641 4.5 -8.8°
Drops below altitude 10° 17:44:42 10° 188° (S) 1,952 7.4 -9.5°
Sets 17:46:52 0° 191° (S) 2,849 8.3 -9.8°
